{"data":{"norad_id":66781,"epoch":"2026-09-19T11:11:20.918976Z","epoch_age_seconds":103839,"freshness":"FRESH","line1":"1 66781U 25276DV  26262.46621434  .00004246  00000+0  33774-3 0  9990","line2":"2 66781  97.5147 330.1255 0002179 174.4258 185.6991 15.00922618 36767","mean_motion":15.00922618,"eccentricity":0.0002179,"inclination_deg":97.5147,"raan_deg":330.1255,"arg_perigee_deg":174.4258,"mean_anomaly_deg":185.6991,"bstar":0.00033774,"rev_number":3676,"period_min":95.940988744564,"perigee_km":562.53727411201,"apogee_km":565.56267919644,"semimajor_km":6942.1869766542,"source":"CELESTRAK","updated_at":"2026-09-20T09:00:34.879812Z"}}